Location: Easter Hill Village
(37.9235°N, 122.3444°W)
Time: 10:55:54
(UTC+00:00)

ADEOS II - Pass Details

Date: 16 September 2019
Orbit: 799 x 801 km, 98.5° (Epoch: 19 October)

Event Time Altitude Azimuth Distance (km) Brightness Sun altitude
Rises 12:03:25 0° 355° (N) 3,314 5.5 -21.6°
Reaches altitude 10° 12:06:26 10° 337° (NNW) 2,380 4.5 -21.1°
Enters shadow 12:08:52 17° 310° (NW) 1,927 3.8 -20.6°
